User: anonymous   Login
Location: Nairn
(57.5833°N, 3.8667°W)
Time: 02:50:42
(UTC+00:00)
Language:

Courier 1B - Orbit

View from above orbital plane
View from above orbital plane
View from above satellite
View from above satellite

Ground track
Ground track

The orbit data is extracted from the following two-line orbital elements,

1    58U 60013A   22275.79454338  .00000106  00000-0  29509-4 0  9990
2    58  28.3263 166.5444 0165016 161.7494 198.9057 13.46338750 52073
Epoch (UTC): 02 October 2022 19:04:08
Eccentricity: 0.0165016
inclination: 28.3263°
perigee height: 962 km
apogee height: 1209 km
right ascension of ascending node: 166.5444°
argument of perigee: 161.7494°
revolutions per day: 13.46338750
mean anomaly at epoch: 198.9057°
orbit number at epoch: 5207

The dashed part of the orbit path shows where the satellite is in the earth's shadow,  

DLR